Regional Weather Roundup
Issued by NWS

Home | Current Version | Previous Version | Graphics & Text | Print | Product List | Glossary On
Versions: 1 2 3 4 5 6 7 8 9 10 11 12 13 14 15 16 17 18 19 20 21 22 23 24 25 26 27 28 29 30 31 32 33 34 35 36 37 38 39 40 41 42 43 44 45 46 47 48 49 50
000
ASUS43 KOAX 220310
RWRNE

WEATHER ROUNDUP FOR NEBRASKA
NATIONAL WEATHER SERVICE OMAHA NE
1000 PM CDT SUN MAY 21 2017

NOTES: SATELLITE DATA IS BEING USED TO AUGMENT CLOUD COVER ABOVE
       12000 FEET.
       "FAIR" INDICATES FEW OR NO CLOUDS BELOW 12,000 FEET WITH NO
       SIGNIFICANT WEATHER AND/OR OBSTRUCTIONS TO VISIBILITY.

  * THESE STATIONS DO NOT REPORT WEATHER SUCH AS RAIN...SNOW OR FOG.

NEZ001>004-019>022-054>056-220400-
NEBRASKA PANHANDLE

CITY           SKY/WX    TMP DP  RH WIND       PRES   REMARKS
SCOTTSBLUFF    MOCLDY    50 N/A N/A CALM      30.18R
ALLIANCE       CLEAR     45  42  89 W8        30.15R
CHADRON        CLEAR     46  42  86 W6        30.15R
GORDON         FAIR      46  42  86 W6        30.13R
KIMBALL        CLOUDY    50  41  70 N5        30.20S
SIDNEY         CLOUDY    46  42  86 NW9       30.20R
$$

NEZ057>060-069>072-079>082-220400-
SOUTHWEST NEBRASKA

CITY           SKY/WX    TMP DP  RH WIND       PRES   REMARKS
NORTH PLATTE   PTCLDY    50  46  86 CALM      30.10R
IMPERIAL       CLOUDY    56  45  66 NW9       30.14R
LEXINGTON      CLEAR     55  47  73 CALM      30.09R
MCCOOK         CLEAR     61  42  49 CALM      30.10R
OGALLALA       CLEAR     51  47  88 W7        30.14R
$$

NEZ005>010-023>029-035>040-094-220400-
NORTH CENTRAL NEBRASKA

CITY           SKY/WX    TMP DP  RH WIND       PRES   REMARKS
VALENTINE      MOCLDY    57  42  57 W9        30.06R
AINSWORTH      CLOUDY    55  47  72 SW14      30.07R
BROKEN BOW     PTCLDY    57  46  66 W5        30.07R
O`NEILL        PTCLDY    56  40  55 S6        30.03R
THEDFORD       CLOUDY    54  47  79 CALM      30.10S
$$

NEZ041-046>049-061>064-073>077-083>087-220400-
SOUTH CENTRAL NEBRASKA

CITY           SKY/WX    TMP DP  RH WIND       PRES   REMARKS
GRAND ISLAND   CLEAR     56  45  66 S5        30.08R
AURORA         CLEAR     60  40  48 S5        30.08R
HASTINGS       CLEAR     59  43  55 SE5       30.09R
HEBRON         CLEAR     59  46  62 S5        30.09R
HOLDREGE       CLEAR     58  44  59 S3        30.09R
KEARNEY *      CLEAR     57  43  58 CALM      30.09R
YORK           CLEAR     57  46  67 S7        30.08R
$$

NEZ011>018-030>034-042>045-220400-
NORTHEAST NEBRASKA

CITY           SKY/WX    TMP DP  RH WIND       PRES   REMARKS
NORFOLK        CLEAR     50  41  71 SE8       30.04R
ALBION         CLEAR     51  42  71 CALM      30.05S
BLAIR          CLEAR     56  45  65 SE5       30.08R
FREMONT        CLEAR     55  47  73 CALM      30.08R
TEKAMAH        CLEAR     53  49  86 S8        30.06R
WAYNE          CLEAR     49  46  87 S6        30.04R
$$

NEZ050>053-065>068-078-088>093-220400-
SOUTHEAST NEBRASKA

CITY           SKY/WX    TMP DP  RH WIND       PRES   REMARKS
LINCOLN        CLEAR     57  43  59 SE3       30.10R
OMAHA EPPLEY   CLEAR     55  45  68 SE3       30.08S
BEATRICE       CLEAR     60  47  61 SE3       30.10R
FALLS CITY     CLEAR     59  43  55 S6        30.10R
NEBRASKA CITY  CLEAR     60  35  39 SE5       30.10S
PLATTSMOUTH    CLEAR     57  39  51 S5        30.09S
$$

NEZ044-045-051>053-067-220400-
OMAHA AREA

CITY           SKY/WX    TMP DP  RH WIND       PRES   REMARKS
OMAHA EPPLEY   CLEAR     55  45  68 SE3       30.08S
BLAIR          CLEAR     56  45  65 SE5       30.08R
FREMONT        CLEAR     55  47  73 CALM      30.08R
MILLARD        CLEAR     55  48  76 CALM      30.09R
OFFUTT AFB     CLEAR     55  45  67 SE6       30.08
PLATTSMOUTH    CLEAR     57  39  51 S5        30.09S
WAHOO          FAIR      54  47  76 SE5       30.08R
$$




USA.gov is the U.S. government's official web portal to all federal, state and local government web resources and services.